Regional Weather Roundup
Issued by NWS Wakefield, VA

Home | Current Version | Previous Version | Text Only | Print | Product List | Glossary Off
Versions: 1 2 3 4 5 6 7 8 9 10 11 12 13 14 15 16 17 18 19 20 21 22 23 24 25 26 27 28 29 30 31 32 33 34 35 36 37 38 39 40 41 42 43 44 45 46 47 48 49 50

000
ASUS41 KAKQ 030415
RWRAKQ

REGIONAL WEATHER ROUNDUP
NATIONAL WEATHER SERVICE WAKEFIELD VA
1100 PM EST FRI DEC 02 2016

Note: "fair" indicates few or no clouds below 12,000 feet with no
significant weather and/or obstructions to visibility. * = Denotes
station may not report precipitation (e.g., rain,snow,etc.),
thunder or fog.

VAZ042-051-052>054-056-030500-
NORTHERN VIRGINIA

CITY           SKY/WX    TMP DP  RH WIND       PRES   REMARKS
WASH NATIONAL  MOCLDY    45  26  47 W13G21    30.13S
DULLES         PTCLDY    42  25  50 W14       30.11S
FORT BELVOIR   MOCLDY    44  25  47 W9        30.13F
QUANTICO       MOCLDY    39  26  59 NW7       30.16S
FREDERICKSBRG* CLOUDY    44  31  59 W3        30.15F
STAFFORD*      CLOUDY    42  28  58 CALM      30.19S
WARRENTON      CLOUDY    43  23  44 CALM      30.14S
CULPEPER*      CLOUDY    43  28  56 CALM      30.16S
MANASSAS*      CLOUDY    43  27  52 W10G16    30.14F
LEESBURG*      MOCLDY    43  30  61 W12       30.13R
WINCHESTER     CLOUDY    39  27  60 W10G22    30.12S
FRONT ROYAL*   CLOUDY    41  27  56 W9G18     30.12S
LURAY*         CLOUDY    41  30  65 CALM      30.14S
$$

VAZ048-049-060>072-079>083-030500-
CENTRAL AND SOUTH CENTRAL VIRGINIA

CITY           SKY/WX    TMP DP  RH WIND       PRES   REMARKS
RICHMOND       PTCLDY    40  29  64 NW6       30.16R
CHESTERFIELD*  FAIR      37  18  44 NW3       30.17S
PETERSBURG*    NOT AVBL
HANOVER        PTCLDY    35  31  85 CALM      30.18R
TAPPAHANNOCK*  PTCLDY    38  27  65 CALM      30.16R
QUINTON*       FAIR      39  30  69 CALM      30.16S
CHARLOTTSVILLE CLOUDY    43  26  51 CALM      30.16R
GORDONSVILLE*  MOCLDY    41  28  60 W5        30.15S
ORANGE*        NOT AVBL
LOUISA*        CLOUDY    39  34  81 CALM      30.15S
BUMPASS*       FAIR      38  29  71 CALM      30.16S
FARMVILLE*     CLEAR     37  31  78 CALM      30.17S
CREWE*         FAIR      39  30  70 NW6       30.16S
FORT PICKETT*  FAIR      39  24  55 W3        30.16S
CHASE CITY*    FAIR      41  28  59 NW5       30.17R
CLARKSVILLE*   FAIR      41  32  70 CALM      30.17S
SOUTH HILL*    PTCLDY    38  31  75 CALM      30.22S
LAWRENCEVILLE* FAIR      36  31  79 CALM      30.17S
EMPORIA*       PTCLDY    36  32  87 CALM      30.18S
$$

VAZ088>098-030500-
SOUTHEAST VIRGINIA

CITY           SKY/WX    TMP DP  RH WIND       PRES   REMARKS
NORFOLK        CLEAR     47  34  60 N15G22    30.13R
VIRGINIA BEACH PTCLDY    46  36  68 N13       30.11R
NORFOLK NAVAL  CLEAR     46  33  60 N14       30.15R
WEST POINT*    PTCLDY    39  31  71 NW3       30.18R
SALUDA*        FAIR      42  32  68 NW9       30.15R
NEWPORT NEWS   CLEAR     43  31  62 N8        30.15R
LANGLEY AFB    CLEAR     43  33  67 N14       30.13R
FORT EUSTIS    CLEAR     44  31  60 N9        30.13R
WILLIAMSBURG*  CLEAR     43  34  70 N5        30.16S
HR EXEC AP*    FAIR      43  32  65 NE6       30.12S
FRANKLIN*      CLEAR     42  31  65 NW6       30.16R
US460-WAKEFLD  CLEAR     40  32  73 N3        30.16R
$$

VAZ020-022-025-037-045-030500-
WEST CENTRAL AND SOUTHWEST VIRGINIA

CITY           SKY/WX    TMP DP  RH WIND       PRES   REMARKS
STAUNTON*      CLOUDY    37  24  59 W9        30.17S
WAYNESBORO*    FAIR      37  23  57 NW5       30.15R
HOT SPRINGS VA NOT AVBL
LYNCHBURG      PTCLDY    38  28  67 W5        30.18S
DANVILLE       MOCLDY    44  31  60 NW10      30.18S
SOUTH BOSTON*  NOT AVBL
MARTINSVILLE   NOT AVBL
ROANOKE        CLOUDY    40  27  59 N12G21    30.22R
BLACKSBURG     CLOUDY    36  28  72 NW17G24   30.22R
DUBLIN*        NOT AVBL
MARION*        CLOUDY    36  29  76 W14G21    30.22R
HILLSVILLE*    CLOUDY    36  29  77 NW12G23   30.16R
RICHLANDS*     CLOUDY    32  28  86 NW3       30.24R
WISE*          CLOUDY    32  28  86 N5        30.25S
ABINGDON*      CLEAR     38  30  71 N7        30.24R
$$

MDZ021>025-VAZ099-100-030500-
SOUTHERN MARYLAND AND THE DELMARVA PENINSULA

CITY           SKY/WX    TMP DP  RH WIND       PRES   REMARKS
PATUXENT RIVER MOCLDY    44  27  51 NW17      30.12R
BAY BRIDGE APT CLOUDY    45  30  57 W14G24    30.10S
LEONARDTOWN    PTCLDY    43  28  56 W8        30.14S
DOVER          PTCLDY    43  30  60 W12       30.05R
GEORGETOWN     PTCLDY    44  27  51 W12       30.08S
EASTON         CLOUDY    45  27  49 NW8       30.14R
CAMBRIDGE      PTCLDY    43  27  52 W7G17     30.11R
SALISBURY      CLEAR     42  27  55 NW10      30.09R
OCEAN CITY     PTCLDY    40  28  62 NW6       30.09R
WALLOPS ISLAND CLEAR     40  30  67 W7        30.12R
ACCOMACK*      MOCLDY    45  32  60 NW15G21   30.13R
$$

NCZ012>017-030>032-030500-
NORTH CENTRAL AND EASTERN NORTH CAROLINA

CITY           SKY/WX    TMP DP  RH WIND       PRES   REMARKS
ROANOKE RAPIDS FAIR      43  32  65 NW6       30.16S
RALEIGH        PTCLDY    41  31  67 CALM      30.18S
ELIZABETH CITY CLEAR     44  34  67 W10       30.13R
AHOSKIE*       PTCLDY    41  32  71 CALM      30.16S
EDENTON*       CLEAR     47  36  63 NW8       30.15R
CURRITUCK*     CLEAR     45  33  63 W6        30.13R
KILL DEVIL HLS CLEAR     51  41  69 W10       30.10S
MANTEO         CLEAR     48  40  76 NW5       30.13R
CAPE HATTERAS  CLEAR     52  38  58 NW9       30.12R
TARBORO*       NOT AVBL
GOLDSBORO      CLEAR     44  36  73 W5        30.15R
WASHINGTON     CLEAR     38  35  87 CALM      30.16R
GREENVILLE     CLEAR     43  36  75 NW3       30.17R
NEW BERN       CLEAR     42  34  73 SW5       30.17R
WILMINGTON     CLEAR     44  38  79 W7        30.19S
$$

VAZ048-030500-
ELSEWHERE

CITY           SKY/WX    TMP DP  RH WIND       PRES   REMARKS
HARRISBURG PA  NOT AVBL
BALTIMORE      MOCLDY    42  27  55 W9        30.09R
ANNAPOLIS      CLOUDY    46  27  47 W9        30.10R
ANDREWS AFB    CLOUDY    43  25  49 W8        30.11R
PHILADELPHIA   MOCLDY    43  29  57 W18       30.02S
HENDERSON NC   CLEAR     39  28  64 N3        30.17S
GREENSBORO     CLOUDY    46  27  47 NW8       30.17R
ROCKY MOUNT    CLEAR     43  33  68 W3        30.17R
$$

VAZ100-030500-
MARINE

STATION/POSITION TIME  TEMP    WIND        PRES    WAVE   SWELL
                       AIR SEA DIR/SP/G            HT/PER HT/PER
                 (UTC) (F)     (DEG/KT/KT) (MB)    (FT/S) (FT/S)
BRANDYWINE LGT   0342   45     290/ 28/ 31   N/A
CAPE MAY NJ      0342   45 49  280/ 23/ 29 1016.8F
LEWES DE         0342   46 50  290/ 23/ 26 1017.8R
OCEAN-CITY-INLET 0342   43 51  320/  7/  9 1018.9R
WACHAPREAGUE VA  0348   44 53  320/  4/  9 1020.2R
THOMAS POINT MD  0400   44 49  270/ 14/ 16   N/A
GOOSES REEF MD   0350   45     310/ 16/ 19 1020.6R
COVE POINT MD    0348   44     320/ 19/ 26 1020.4R
SOLOMONS ISLAND  0348   45 52  310/ 14/ 23   N/A
BISHOPS HEAD MD  0348   45 49  310/ 19/ 24 1020.1R
PINEY POINT MD   0348          340/ 24/ 28   N/A
POTOMAC MD       0350   46     330/ 16/ 21 1019.8R
CAMBRIDGE MD     0348   45 48  270/ 11/ 15 1019.0R
LEWISETTA VA     0348   45 51  330/ 15/ 20 1020.2R
RAPPAHANNOCK LGT 0348          330/ 24/ 26 1020.7R
STINGRAY PT      0350   45     350/ 16/ 19 1021.0R
YORK RVR RNG VA  0348   46     360/ 21/ 24 1019.8R
YORKTOWN VA      0348   45 53  340/ 10/ 12 1020.5R
JAMESTOWN VA     0350   43     340/  6/  8   N/A
DOMINION TERM VA 0348   46     360/ 11/ 15 1020.8R
KIPTOPEKE VA     0348      53  360/ 10/ 16   N/A
CHES BAY BRIDGE  0336   48 54  360/ 21/ 24 1019.8R
CAPE HENRY VA    0336   49     360/ 19/ 23   N/A
WILLOUBY STN VA  0336   47     350/ 15/ 17 1021.2R
S CRANEY ISL VA  0348   47     360/ 14/ 19 1020.3R
CAPE HENRY BUOY  0342      56                N/A     2/ 3
1ST LANDING BUOY 0350   49                 1020.2R
CAPE CHARLES BUO 0356      56                N/A     3/ 3
OFFSHORE WE BUOY 0351      56                N/A     3/ 4
64NM E OF VA BCH 0350   55 60  290/ 19/ 23 1017.9S   4/ 5   2/ 8
DUCK PIER NC     0336   51 57  280/ 14/ 17 1019.3R
44100 DUCK FRF   0335      57                N/A     3/ 3
OREGON INLET NC  0348          280/  7/ 11   N/A
HATTERAS NC      0336   54 62  310/ 14/ 15 1019.7R
DIAMOND SHLS NC  0350   58 75  310/ 19/ 23 1019.8R   4/ 4   2/ 8
CAPE LOOKOUT NC  0300   55     290/ 14/ 17 1020.5R
$$



USA.gov is the U.S. government's official web portal to all federal, state and local government web resources and services.